Location: Cisewo
(53.3833°N, 14.9000°E)
Time: 12:16:54
(UTC+00:00)

Cosmos 44 Rocket - Pass Details

Date: 18 April 2021
Orbit: 636 x 754 km, 65.1° (Epoch: 14 May)

Event Time Altitude Azimuth Distance (km) Brightness Sun altitude
Exits shadow 22:36:36 41° 255° (WSW) 1,063 4.1 -25.3°
Maximum altitude 22:38:15 64° 319° (NW) 823 3.7 -25.3°
Drops below altitude 10° 22:43:28 10° 41° (NE) 2,284 6.5 -25.4°
Sets 22:45:55 0° 45° (NE) 3,216 7.3 -25.4°
